Grand Rapids, MN

7:04 PM CDT on May 25, 2017 (GMT -0500)
Grand Rapids-Itasca County-Newstrom Field

Weather History for KGPZ - November, 2014

Change the Weather History Date:

Monday, November 10, 2014

  Actual Average Record
Temperature  
Mean Temperature 20 °F -  
Max Temperature 23 °F 36 °F 62 °F (1954)
Min Temperature 17 °F 23 °F -8 °F (1933)
Degree Days  
Heating Degree Days 45    
Moisture  
Dew Point 13 °F    
Average Humidity 73    
Maximum Humidity 93    
Minimum Humidity 59    
Precipitation  
Precipitation 0.00 in - - ()
Sea Level Pressure  
Sea Level Pressure 29.89 in    
Wind  
Wind Speed 4 mph (North)    
Max Wind Speed 16 mph    
Max Gust Speed 23 mph    
Visibility 9 miles    
Events      
Averages and records for this station are not official NWS values.
T = Trace of Precipitation, MM = Missing Value Source: NWS Daily Summary

Daily Weather History Graph

Daily Weather History Graph

Search for Another Location

Airport or City:

Trip Planner

Search our weather history database for the weather conditions in past years. The results will help you decide how hot, cold, wet, or windy it might be!

Date:

Astronomy

Nov. 10, 2014 Rise Set
Actual Time 7:10 AM CST 4:44 PM CST
Civil Twilight 6:37 AM CST 5:17 PM CST
Nautical Twilight 6:01 AM CST 5:54 PM CST
Astronomical Twilight 5:25 AM CST 6:29 PM CST
Moon 8:10 PM CST (11/10) 10:36 AM CST (11/10)
Length of Visible Light 10h 39m
Length of Day
9h 33m
Waning Gibbous, 84% of the Moon is Illuminated
Nov 10
Waning Gibbous
Nov 14
Last Quarter
Nov 22
New
Nov 29
First Quarter
Dec 6
Full

Hourly Weather History & Observations

Time (CST) Temp. Windchill Dew Point Humidity Pressure Visibility Wind Dir Wind Speed Gust Speed Precip Events Conditions
12:15 AM 19.4 °F - 14.0 °F 80% 29.81 in 10.0 mi Calm Calm - N/A   Clear
12:35 AM 17.6 °F - 12.2 °F 79% 29.82 in 10.0 mi Calm Calm - N/A   Clear
12:55 AM 19.4 °F - 12.2 °F 74% 29.82 in 10.0 mi Calm Calm - N/A   Mostly Cloudy
1:15 AM 17.6 °F - 12.2 °F 79% 29.82 in 10.0 mi Calm Calm - N/A   Overcast
1:35 AM 17.6 °F - 14.0 °F 86% 29.83 in 10.0 mi Calm Calm - N/A   Overcast
1:55 AM 17.6 °F - 14.0 °F 86% 29.83 in 10.0 mi Calm Calm - N/A   Mostly Cloudy
2:15 AM 17.6 °F - 14.0 °F 86% 29.83 in 10.0 mi Calm Calm - N/A   Overcast
2:35 AM 17.6 °F - 14.0 °F 86% 29.83 in 10.0 mi Calm Calm - N/A   Overcast
2:55 AM 17.6 °F - 15.8 °F 93% 29.83 in 10.0 mi Calm Calm - N/A   Overcast
3:15 AM 19.4 °F - 14.0 °F 80% 29.83 in 10.0 mi Calm Calm - N/A   Overcast
3:35 AM 19.4 °F - 14.0 °F 80% 29.83 in 10.0 mi Calm Calm - N/A   Overcast
3:55 AM 19.4 °F - 14.0 °F 80% 29.83 in 10.0 mi Calm Calm - N/A   Overcast
4:15 AM 19.4 °F - 14.0 °F 80% 29.82 in 10.0 mi Calm Calm - N/A   Overcast
4:35 AM 19.4 °F - 14.0 °F 80% 29.82 in 10.0 mi Calm Calm - N/A   Overcast
4:55 AM 19.4 °F - 14.0 °F 80% 29.81 in 10.0 mi Calm Calm - N/A   Overcast
5:15 AM 19.4 °F - 14.0 °F 80% 29.81 in 10.0 mi Calm Calm - N/A   Overcast
5:35 AM 19.4 °F - 12.2 °F 74% 29.81 in 10.0 mi Calm Calm - N/A   Overcast
5:55 AM 19.4 °F 14.3 °F 12.2 °F 74% 29.82 in 10.0 mi ENE 3.5 mph - N/A   Overcast
6:15 AM 19.4 °F 14.3 °F 12.2 °F 74% 29.81 in 10.0 mi ENE 3.5 mph - N/A   Overcast
6:35 AM 19.4 °F 14.3 °F 12.2 °F 74% 29.81 in 10.0 mi NE 3.5 mph - N/A   Overcast
6:55 AM 19.4 °F 14.3 °F 12.2 °F 74% 29.82 in 10.0 mi NNE 3.5 mph - N/A   Overcast
7:15 AM 19.4 °F 12.8 °F 12.2 °F 74% 29.82 in 10.0 mi NNE 4.6 mph - N/A   Overcast
7:35 AM 19.4 °F 10.4 °F 12.2 °F 74% 29.83 in 10.0 mi NNE 6.9 mph - N/A   Overcast
7:55 AM 19.4 °F 12.8 °F 12.2 °F 74% 29.83 in 10.0 mi NNE 4.6 mph - N/A   Overcast
8:15 AM 19.4 °F 11.5 °F 12.2 °F 74% 29.84 in 10.0 mi NNE 5.8 mph - N/A   Overcast
8:35 AM 19.4 °F 11.5 °F 12.2 °F 74% 29.85 in 10.0 mi North 5.8 mph - N/A   Overcast
8:55 AM 19.4 °F 10.4 °F 12.2 °F 74% 29.85 in 10.0 mi NNE 6.9 mph - N/A   Overcast
9:15 AM 19.4 °F 9.5 °F 12.2 °F 74% 29.86 in 10.0 mi North 8.1 mph - N/A   Overcast
9:35 AM 19.4 °F 12.8 °F 12.2 °F 74% 29.87 in 10.0 mi NE 4.6 mph - N/A   Overcast
9:55 AM 19.4 °F 11.5 °F 12.2 °F 74% 29.88 in 10.0 mi North 5.8 mph - N/A   Overcast
10:15 AM 19.4 °F 11.5 °F 12.2 °F 74% 29.87 in 10.0 mi NNE 5.8 mph - N/A   Overcast
10:35 AM 19.4 °F 8.6 °F 12.2 °F 74% 29.88 in 10.0 mi North 9.2 mph - N/A   Overcast
10:55 AM 19.4 °F 11.5 °F 12.2 °F 74% 29.88 in 10.0 mi North 5.8 mph - N/A   Overcast
11:15 AM 19.4 °F 11.5 °F 12.2 °F 74% 29.87 in 10.0 mi NNE 5.8 mph - N/A   Overcast
11:35 AM 21.2 °F 12.6 °F 14.0 °F 74% 29.87 in 3.0 mi North 6.9 mph - N/A   Overcast
11:55 AM 19.4 °F 8.6 °F 14.0 °F 80% 29.87 in 3.0 mi North 9.2 mph - N/A   Overcast
12:15 PM 19.4 °F 7.9 °F 14.0 °F 80% 29.86 in 1.2 mi North 10.4 mph - N/A   Overcast
12:35 PM 19.4 °F 7.9 °F 15.8 °F 86% 29.85 in 3.0 mi North 10.4 mph - N/A   Overcast
12:55 PM 21.2 °F 10.9 °F 14.0 °F 74% 29.85 in 3.0 mi North 9.2 mph - N/A   Overcast
1:15 PM 21.2 °F 12.6 °F 14.0 °F 74% 29.83 in 5.0 mi North 6.9 mph - N/A   Overcast
1:35 PM 21.2 °F 9.5 °F 14.0 °F 74% 29.84 in 5.0 mi NNE 11.5 mph 16.1 mph N/A   Overcast
1:55 PM 21.2 °F 11.7 °F 15.8 °F 80% 29.84 in 6.0 mi North 8.1 mph - N/A   Overcast
2:15 PM 21.2 °F 10.9 °F 15.8 °F 80% 29.85 in 10.0 mi North 9.2 mph - N/A   Mostly Cloudy
2:35 PM 21.2 °F 10.1 °F 14.0 °F 74% 29.87 in 10.0 mi North 10.4 mph 16.1 mph N/A   Mostly Cloudy
2:55 PM 21.2 °F 13.6 °F 14.0 °F 74% 29.88 in 10.0 mi North 5.8 mph - N/A   Overcast
3:15 PM 21.2 °F 10.9 °F 14.0 °F 74% 29.88 in 10.0 mi North 9.2 mph - N/A   Overcast
3:35 PM 21.2 °F 10.9 °F 15.8 °F 80% 29.89 in 10.0 mi North 9.2 mph - N/A   Overcast
3:55 PM 21.2 °F 9.5 °F 15.8 °F 80% 29.90 in 10.0 mi North 11.5 mph 16.1 mph N/A   Overcast
4:15 PM 23.0 °F 12.4 °F 14.0 °F 68% 29.90 in 10.0 mi North 10.4 mph 16.1 mph N/A   Overcast
4:35 PM 23.0 °F 13.9 °F 14.0 °F 68% 29.90 in 10.0 mi North 8.1 mph - N/A   Overcast
4:55 PM 23.0 °F 12.4 °F 12.2 °F 63% 29.89 in 10.0 mi North 10.4 mph - N/A   Overcast
5:15 PM 21.2 °F 10.9 °F 12.2 °F 68% 29.89 in 10.0 mi NNE 9.2 mph 18.4 mph N/A   Overcast
5:35 PM 21.2 °F 9.5 °F 12.2 °F 68% 29.92 in 10.0 mi North 11.5 mph 17.3 mph N/A   Overcast
5:55 PM 23.0 °F 12.4 °F 12.2 °F 63% 29.95 in 10.0 mi North 10.4 mph 17.3 mph N/A   Overcast
6:15 PM 23.0 °F 12.4 °F 12.2 °F 63% 29.96 in 10.0 mi North 10.4 mph - N/A   Overcast
6:35 PM 23.0 °F 11.7 °F 12.2 °F 63% 29.97 in 10.0 mi North 11.5 mph 17.3 mph N/A   Overcast
6:55 PM 23.0 °F 12.4 °F 12.2 °F 63% 29.98 in 10.0 mi North 10.4 mph 16.1 mph N/A   Overcast
7:15 PM 23.0 °F 12.4 °F 10.4 °F 59% 29.98 in 10.0 mi North 10.4 mph - N/A   Overcast
7:35 PM 21.2 °F 10.9 °F 10.4 °F 63% 29.99 in 10.0 mi North 9.2 mph 16.1 mph N/A   Overcast
7:55 PM 21.2 °F 8.9 °F 10.4 °F 63% 29.99 in 10.0 mi North 12.7 mph 19.6 mph N/A   Overcast
8:15 PM 21.2 °F 8.3 °F 12.2 °F 68% 30.00 in 10.0 mi North 13.8 mph - N/A   Overcast
8:35 PM 21.2 °F 7.3 °F 10.4 °F 63% 29.99 in 10.0 mi North 16.1 mph - N/A   Overcast
8:55 PM 21.2 °F 7.8 °F 10.4 °F 63% 29.98 in 10.0 mi North 15.0 mph 18.4 mph N/A   Overcast
9:15 PM 21.2 °F 7.3 °F 10.4 °F 63% 30.00 in 10.0 mi North 16.1 mph - N/A   Overcast
9:35 PM 21.2 °F 8.3 °F 12.2 °F 68% 30.00 in 10.0 mi North 13.8 mph 23.0 mph N/A   Overcast
9:55 PM 21.2 °F 7.8 °F 10.4 °F 63% 30.02 in 10.0 mi North 15.0 mph 19.6 mph N/A   Overcast
10:15 PM 21.2 °F 8.9 °F 10.4 °F 63% 30.03 in 10.0 mi North 12.7 mph 20.7 mph N/A   Overcast
10:35 PM 21.2 °F 9.5 °F 10.4 °F 63% 30.02 in 10.0 mi North 11.5 mph 17.3 mph N/A   Overcast
10:55 PM 21.2 °F 7.3 °F 10.4 °F 63% 30.01 in 10.0 mi NNW 16.1 mph 23.0 mph N/A   Overcast
11:15 PM 21.2 °F 8.9 °F 10.4 °F 63% 30.02 in 10.0 mi North 12.7 mph 16.1 mph N/A   Overcast
11:35 PM 21.2 °F 10.1 °F 12.2 °F 68% 30.02 in 10.0 mi North 10.4 mph 16.1 mph N/A   Overcast
11:55 PM 21.2 °F 8.9 °F 12.2 °F 68% 30.01 in 10.0 mi North 12.7 mph 17.3 mph N/A   Overcast